Weather History for Haleyville, AL

Change the Weather History Date:

Monday, May 19, 2014

  Actual Average (KJFX) Record (KJFX)
Temperature  
Mean Temperature 65 °F -  
Max Temperature 79 °F 82 °F 96 °F (1962)
Min Temperature 51 °F 55 °F 38 °F (1973)
Growing Degree Days 15 (Base 50)    
Moisture  
Dew Point 57 °F    
Average Humidity 89    
Maximum Humidity 100    
Minimum Humidity 56    
Precipitation  
Precipitation 0.00 in - - ()
Sea Level Pressure  
Sea Level Pressure 30.23 in    
Wind  
Wind Speed 1 mph (SSE)    
Max Wind Speed 9 mph    
Max Gust Speed -    
Visibility 5 miles    
Events Fog    
Averages and records for this station are not official NWS values.
T = Trace of Precipitation, MM = Missing Value Source: NWS Daily Summary

Daily Weather History Graph

Daily Weather History Graph

Search for Another Location

Airport:

Trip Planner

Search our weather history database for the weather conditions in past years. The results will help you decide how hot, cold, wet, or windy it might be!

Date:

Astronomy

May. 19, 2014 Rise Set
Actual Time 5:45 AM CDT 7:48 PM CDT
Civil Twilight 5:17 AM CDT 8:16 PM CDT
Nautical Twilight 4:43 AM CDT 8:50 PM CDT
Astronomical Twilight 4:06 AM CDT 9:27 PM CDT
Moon No Moon Rise 10:38 AM CDT (5/19)
Length of Visible Light 14h 59m
Length of Day
14h 02m
Waning Gibbous, 71% of the Moon is Illuminated
May 19
Waning Gibbous
May 21
Last Quarter
May 28
New
Jun 5
First Quarter
Jun 12
Full

Hourly Weather History & Observations

Time (CDT) Temp. Dew Point Humidity Pressure Visibility Wind Dir Wind Speed Gust Speed Precip Events Conditions
12:03 AM 53.6 °F 53.6 °F 100% 30.21 in 0.5 mi Calm Calm - N/A Fog Fog
12:17 AM 51.8 °F 51.8 °F 100% 30.22 in 0.2 mi Calm Calm - N/A Fog Fog
12:29 AM 51.8 °F 51.8 °F 100% 30.22 in 0.5 mi Calm Calm - N/A Fog Fog
1:23 AM 53.6 °F 53.6 °F 100% 30.21 in 0.2 mi Calm Calm - N/A Fog Fog
1:56 AM 52.9 °F 52.9 °F 100% 30.24 in 0.2 mi Calm Calm - N/A Fog Fog
2:22 AM 53.6 °F 53.6 °F 100% 30.21 in 0.2 mi Calm Calm - N/A Fog Fog
2:56 AM 52.9 °F 52.9 °F 100% 30.24 in 0.2 mi Calm Calm - N/A Fog Fog
3:04 AM 53.6 °F 53.6 °F 100% 30.21 in 0.2 mi Calm Calm - N/A Fog Fog
3:18 AM 53.6 °F 53.6 °F 100% 30.22 in 0.5 mi Calm Calm - N/A Fog Fog
3:44 AM 51.8 °F 51.8 °F 100% 30.22 in 0.2 mi Calm Calm - N/A Fog Fog
3:56 AM 52.0 °F 52.0 °F 100% 30.25 in 0.2 mi Calm Calm - N/A Fog Fog
4:26 AM 51.8 °F 51.8 °F 100% 30.22 in 0.5 mi Calm Calm - N/A Fog Fog
4:36 AM 51.8 °F 51.8 °F 100% 30.22 in 0.2 mi Calm Calm - N/A Fog Fog
4:56 AM 52.0 °F 52.0 °F 100% 30.25 in 0.5 mi Calm Calm - N/A Fog Fog
5:02 AM 51.8 °F 51.8 °F 100% 30.22 in 1.0 mi Calm Calm - N/A   Mostly Cloudy
5:05 AM 53.6 °F 53.6 °F 100% 30.22 in 1.8 mi Calm Calm - N/A   Mostly Cloudy
5:08 AM 53.6 °F 53.6 °F 100% 30.22 in 3.0 mi Calm Calm - N/A   Scattered Clouds
5:32 AM 53.6 °F 53.6 °F 100% 30.23 in 2.5 mi Calm Calm - N/A   Mostly Cloudy
5:37 AM 53.6 °F 53.6 °F 100% 30.23 in 1.2 mi Calm Calm - N/A   Mostly Cloudy
5:42 AM 53.6 °F 53.6 °F 100% 30.23 in 0.8 mi Calm Calm - N/A   Mostly Cloudy
5:56 AM 52.9 °F 52.9 °F 100% 30.26 in 1.0 mi Calm Calm - N/A   Overcast
6:00 AM 53.6 °F 53.6 °F 100% 30.23 in 1.5 mi Calm Calm - N/A   Mostly Cloudy
6:16 AM 53.6 °F 53.6 °F 100% 30.24 in 4.0 mi Calm Calm - N/A   Partly Cloudy
6:56 AM 54.9 °F 54.9 °F 100% 30.28 in 10.0 mi Calm Calm - N/A   Partly Cloudy
9:56 AM 64.9 °F 59.9 °F 84% 30.30 in 10.0 mi SSE 5.8 mph - N/A   Clear
10:56 AM 68.9 °F 61.0 °F 76% 30.29 in 10.0 mi SE 4.6 mph - N/A   Clear
11:56 AM 73.9 °F 63.0 °F 68% 30.28 in 10.0 mi SSE 5.8 mph - N/A   Partly Cloudy
12:56 PM 75.9 °F 63.0 °F 64% 30.27 in 10.0 mi South 9.2 mph - N/A   Scattered Clouds
1:56 PM 77.9 °F 63.0 °F 60% 30.26 in 10.0 mi Variable 4.6 mph - N/A   Scattered Clouds
2:56 PM 79.0 °F 63.0 °F 58% 30.24 in 10.0 mi Variable 4.6 mph - N/A   Partly Cloudy
3:56 PM 77.9 °F 61.0 °F 56% 30.22 in 10.0 mi South 6.9 mph - N/A   Mostly Cloudy
4:56 PM 77.9 °F 61.9 °F 58% 30.22 in 10.0 mi Calm Calm - N/A   Partly Cloudy
5:56 PM 77.0 °F 63.9 °F 64% 30.21 in 10.0 mi South 5.8 mph - N/A   Clear
6:56 PM 73.9 °F 63.9 °F 71% 30.19 in 10.0 mi SSE 4.6 mph - N/A   Clear
7:56 PM 70.0 °F 63.9 °F 81% 30.19 in 10.0 mi Calm Calm - N/A   Clear
8:56 PM 68.0 °F 63.0 °F 84% 30.21 in 10.0 mi Calm Calm - N/A   Clear
9:56 PM 68.0 °F 61.9 °F 81% 30.21 in 10.0 mi Calm Calm - N/A   Clear
10:56 PM 66.9 °F 61.9 °F 84% 30.21 in 10.0 mi Calm Calm - N/A   Clear
11:56 PM 65.8 °F 61.9 °F 87% 30.21 in 10.0 mi SSE 5.8 mph - N/A   Clear